Weather History for Naples, Italy

Change the Weather History Date:

Friday, December 9, 2011

  Actual Average Record
Temperature  
Mean Temperature 52 °F -  
Max Temperature 62 °F 55 °F 73 °F (2000)
Min Temperature 42 °F 40 °F 30 °F (1998)
Degree Days  
Heating Degree Days 13    
Growing Degree Days 2 (Base 50)    
Moisture  
Dew Point 47 °F    
Average Humidity 77    
Maximum Humidity 87    
Minimum Humidity 63    
Precipitation  
Precipitation 0.00 in 0.15 in - ()
Sea Level Pressure  
Sea Level Pressure 30.26 in    
Wind  
Wind Speed 3 mph ()    
Max Wind Speed 9 mph    
Max Gust Speed -    
Visibility 6.2 miles    
Events      
Averages and records for this station are not official NWS values.
T = Trace of Precipitation, MM = Missing Value Source: Averaged Metar Reports

Daily Weather History Graph

Daily Weather History Graph

Search for Another Location

Airport:

Trip Planner

Search our weather history database for the weather conditions in past years. The results will help you decide how hot, cold, wet, or windy it might be!

Date:

Astronomy

Dec. 09, 2011 Rise Set
Actual Time 7:15 AM CET 4:34 PM CET
Civil Twilight 6:44 AM CET 5:05 PM CET
Nautical Twilight 6:09 AM CET 5:39 PM CET
Astronomical Twilight 5:36 AM CET 6:13 PM CET
Moon 3:44 PM CET (12/9) 6:06 AM CET (12/9)
Length of Visible Light 10h 21m
Length of Day
9h 19m
Waxing Gibbous, 99% of the Moon is Illuminated
Dec 9
Waxing Gibbous
Dec 10
Full
Dec 18
Last Quarter
Dec 24
New
Jan 1
First Quarter

Hourly Weather History & Observations

Time (CET) Temp. Windchill Dew Point Humidity Pressure Visibility Wind Dir Wind Speed Gust Speed Precip Events Conditions
12:20 AM 48.2 °F - 44.6 °F 87% 30.27 in - Calm Calm - N/A   Clear
12:50 AM 46.4 °F - 42.8 °F 87% 30.27 in - North 2.3 mph - N/A   Clear
1:20 AM 48.2 °F - 42.8 °F 82% 30.27 in - Variable 2.3 mph - N/A   Clear
1:50 AM 46.4 °F 43.5 °F 42.8 °F 87% 30.27 in - NNE 5.8 mph - N/A   Clear
2:20 AM 46.4 °F 45.2 °F 42.8 °F 87% 30.27 in - NNE 3.5 mph - N/A   Clear
2:50 AM 44.6 °F 43.1 °F 41.0 °F 87% 30.27 in - West 3.5 mph - N/A   Clear
3:20 AM 44.6 °F 43.1 °F 41.0 °F 87% 30.27 in - WNW 3.5 mph - N/A   Clear
3:50 AM 44.6 °F 43.1 °F 41.0 °F 87% 30.27 in - WNW 3.5 mph - N/A   Clear
4:20 AM 44.6 °F - 39.2 °F 81% 30.27 in - Variable 1.2 mph - N/A   Clear
4:50 AM 44.6 °F 43.1 °F 41.0 °F 87% 30.27 in - NW 3.5 mph - N/A   Clear
5:20 AM 44.6 °F 43.1 °F 41.0 °F 87% 30.27 in - North 3.5 mph - N/A   Clear
5:50 AM 42.8 °F 41.1 °F 39.2 °F 87% 30.27 in 6.2 mi North 3.5 mph - N/A   Partly Cloudy
6:20 AM 46.4 °F 45.2 °F 39.2 °F 76% 30.27 in 6.2 mi North 3.5 mph - N/A   Partly Cloudy
6:50 AM 44.6 °F 43.1 °F 39.2 °F 81% 30.27 in 6.2 mi NW 3.5 mph - N/A   Partly Cloudy
7:20 AM 44.6 °F 42.2 °F 39.2 °F 81% 30.27 in 6.2 mi NNW 4.6 mph - N/A   Partly Cloudy
7:50 AM 46.4 °F - 41.0 °F 81% 30.27 in - Variable 2.3 mph - N/A   Clear
8:20 AM 46.4 °F - 41.0 °F 81% 30.30 in 6.2 mi North 2.3 mph - N/A   Partly Cloudy
8:50 AM 51.8 °F - 44.6 °F 76% 30.30 in 6.2 mi NE 3.5 mph - N/A   Partly Cloudy
9:20 AM 53.6 °F - 44.6 °F 72% 30.30 in 6.2 mi Variable 2.3 mph - N/A   Partly Cloudy
9:50 AM 55.4 °F - 44.6 °F 67% 30.30 in 6.2 mi Variable 1.2 mph - N/A   Partly Cloudy
10:20 AM 57.2 °F - 46.4 °F 67% 30.30 in 6.2 mi Variable 1.2 mph - N/A   Partly Cloudy
10:50 AM 62.6 °F - 50.0 °F 63% 30.30 in 6.2 mi Variable 1.2 mph - N/A   Scattered Clouds
11:20 AM 60.8 °F - 51.8 °F 72% 30.27 in 6.2 mi South 5.8 mph - N/A   Scattered Clouds
11:50 AM 60.8 °F - 51.8 °F 72% 30.27 in 6.2 mi SW 6.9 mph - N/A   Scattered Clouds
12:20 PM 62.6 °F - 51.8 °F 68% 30.27 in 6.2 mi South 5.8 mph - N/A   Scattered Clouds
12:50 PM 62.6 °F - 51.8 °F 68% 30.27 in 6.2 mi SSW 9.2 mph - N/A   Scattered Clouds
1:20 PM 60.8 °F - 51.8 °F 72% 30.24 in 6.2 mi SSW 6.9 mph - N/A   Scattered Clouds
1:50 PM 60.8 °F - 51.8 °F 72% 30.24 in 6.2 mi South 5.8 mph - N/A   Scattered Clouds
2:20 PM 62.6 °F - 51.8 °F 68% 30.24 in 6.2 mi South 8.1 mph - N/A   Partly Cloudy
2:50 PM 62.6 °F - 51.8 °F 68% 30.21 in 6.2 mi SSW 9.2 mph - N/A   Partly Cloudy
3:20 PM 60.8 °F - 51.8 °F 72% 30.21 in 6.2 mi SSW 5.8 mph - N/A   Scattered Clouds
3:50 PM 60.8 °F - 50.0 °F 68% 30.24 in 6.2 mi SSW 5.8 mph - N/A   Scattered Clouds
4:20 PM 60.8 °F - 51.8 °F 72% 30.24 in 6.2 mi SSW 4.6 mph - N/A   Mostly Cloudy
4:50 PM 59.0 °F - 51.8 °F 77% 30.24 in 6.2 mi SW 5.8 mph - N/A   Mostly Cloudy
5:20 PM 60.8 °F - 51.8 °F 72% 30.24 in 6.2 mi SW 5.8 mph - N/A   Mostly Cloudy
5:50 PM 60.8 °F - 51.8 °F 72% 30.24 in 6.2 mi SW 4.6 mph - N/A   Scattered Clouds
6:20 PM 59.0 °F - 51.8 °F 77% 30.24 in 6.2 mi SW 3.5 mph - N/A   Scattered Clouds
6:50 PM 59.0 °F - 51.8 °F 77% 30.24 in 6.2 mi Variable 2.3 mph - N/A   Scattered Clouds
7:20 PM 59.0 °F - 51.8 °F 77% 30.24 in 6.2 mi SSW 4.6 mph - N/A   Scattered Clouds
7:50 PM 59.0 °F - 51.8 °F 77% 30.24 in 6.2 mi SSW 5.8 mph - N/A   Scattered Clouds
8:20 PM 59.0 °F - 51.8 °F 77% 30.24 in 6.2 mi SSW 5.8 mph - N/A   Mostly Cloudy
8:50 PM 59.0 °F - 51.8 °F 77% 30.24 in 6.2 mi South 4.6 mph - N/A   Mostly Cloudy
9:20 PM 59.0 °F - 51.8 °F 77% 30.24 in 6.2 mi South 3.5 mph - N/A   Scattered Clouds
9:50 PM 59.0 °F - 51.8 °F 77% 30.21 in 6.2 mi Variable 2.3 mph - N/A   Scattered Clouds
10:20 PM 59.0 °F - 51.8 °F 77% 30.21 in 6.2 mi South 6.9 mph - N/A   Scattered Clouds
10:50 PM 59.0 °F - 51.8 °F 77% 30.21 in 6.2 mi South 9.2 mph - N/A   Scattered Clouds
11:20 PM 57.2 °F - 51.8 °F 82% 30.21 in 6.2 mi South 6.9 mph - N/A   Scattered Clouds
11:50 PM 57.2 °F - 51.8 °F 82% 30.21 in 6.2 mi Variable 2.3 mph - N/A   Light Drizzle